STARLINK-32331, 61623

Orbit data source: Space-Track

STARLINK-32331, 61623 is a payload satellite owned by SpaceX/Seattle (US) in LEO that was launched on Wed, 23 Oct 2024 UTC via an FALCON 9 launch vehicle from the Air Force Eastern Test Range (AFETR). Payload-class satellites include a variety of spacecraft equipped with specific instruments for various scientific and technological missions. These include communications satellites like Starlink; space stations such as the ISS; scientific satellites like the Hubble; Earth observation satellites from companies like Planet Labs, Umbra, and HawkEye 360; GPS; miniature CubeSats for education and research; and military/defense satellites.

Loading next visibility...
Identifier
61623, 2024-191C
Orbit
LEO
Country
Flag of USUS
Related business
Manufacturer
SpaceX/Seattle
Mission
Operational Commercial Communications
Bus & Motor
STARLINK V2M, Unknown motor
Mass
730 kg wet, ~700 kg dry
Launch date (UTC)
2024-10-23 (2 years ago)
Launch vehicle
FALCON 9
Launch site
Air Force Eastern Test Range (AFETR)
Object type
Payload
Rocket body
Debris
Shape & HBR
Box + 2 Pan, 17.7 m
Radar Cross Section
33.884 m², Large (>1 m²)

Expand to show TLE details & history
Last TLE update: 10 hours ago

TLE from 10 hours ago
0 STARLINK-32331
1 61623U 24191C   26256.07206703  .00013570  00000-0  50123-3 0  9991
2 61623  42.9995 179.7730 0000413 188.5244 171.5601 15.27614163106152
Epoch: 2026-09-13T01:43Z
TLE epoch observation values (Epoch: 2026-09-13T01:43:46.591Z)
Latitude
0.00001°
Longitude
161.75691°
Altitude
483.002 km
Speed
7.626 km/s
True Right ascension
11h 59m 05s
True Declination
0° 00' 00"
Sunlit
Object was in daylight at epoch
Visualization orbit readout
Latitude
Unknown
Longitude
Unknown
Altitude
Unknown
Speed
Unknown
Apparent Right ascension
Unknown
Apparent Declination
Unknown
Sunlit
N/A
Visualization observer readout
Local Sidereal Time
03:54:38
Azimuth
Unknown
Elevation
Unknown
Doppler factor
Unknown
Orbital elements
Apogee altitude
485.176 km
Perigee altitude
484.609 km
Semi-major axis
6,863.029 km
Eccentricity
0.00004
Inclination
42.9995°
RAAN
179.773°
Arg. of periapsis
188.5244°
True anomaly
171.56079°
Mean anomaly
171.5601°
Eccentric anomaly
171.56045°
Mean motion
3.81742 °/min
Orbital period
94.3 mins
BSTAR
0.00050123
Loading maneuver chart data...
Computing Atmospheric mass density...
Loading historical data...
Loading historical data...
Loading historical data...
Loading historical data...
Loading historical data...
Loading historical data...
Loading historical data...

Documentation

Showing up to 5 results
|